{"data":{"norad_id":69679,"epoch":"2026-09-19T08:09:50.479776Z","epoch_age_seconds":121844,"freshness":"FRESH","line1":"1 69679U 26145C   26262.34016759  .00011317  00000+0  35228-3 0  9993","line2":"2 69679  97.2851 108.9957 0001952  88.2197 271.9269 15.33450412 13369","mean_motion":15.33450412,"eccentricity":0.0001952,"inclination_deg":97.2851,"raan_deg":108.9957,"arg_perigee_deg":88.2197,"mean_anomaly_deg":271.9269,"bstar":0.00035228,"rev_number":1336,"period_min":93.905873234067,"perigee_km":464.19118899426,"apogee_km":466.86295544805,"semimajor_km":6843.6640722212,"source":"CELESTRAK","updated_at":"2026-09-20T09:00:44.252277Z"}}